�������l�o���
Date,Time,MP-1(��Sv/h),MP-2(��Sv/h),MP-3(��Sv/h),MP-4(��Sv/h),MP-5(��Sv/h),MP-6(��Sv/h),MP-7(��Sv/h),MP-8(��Sv/h),����,����(m/s),���J
2020/03/09,00:00,0.676,0.965,0.652,1.186,0.847,0.391,0.688,0.656,�k�k��,7.8,��
2020/03/09,00:10,0.675,0.965,0.651,1.187,0.847,0.393,0.689,0.656,�k�k��,7.8,��
2020/03/09,00:20,0.676,0.964,0.651,1.186,0.848,0.392,0.688,0.655,�k�k��,8.0,��
2020/03/09,00:30,0.674,0.965,0.651,1.186,0.847,0.391,0.687,0.656,�k�k��,7.6,��
2020/03/09,00:40,0.677,0.964,0.653,1.188,0.845,0.393,0.687,0.656,�k�k��,6.6,��
2020/03/09,00:50,0.677,0.964,0.650,1.186,0.848,0.392,0.688,0.655,�k�k��,7.1,��
2020/03/09,01:00,0.677,0.964,0.652,1.188,0.845,0.394,0.688,0.657,�k�k��,7.0,��
2020/03/09,01:10,0.676,0.965,0.651,1.185,0.848,0.393,0.689,0.657,�k�k��,6.8,��
2020/03/09,01:20,0.674,0.965,0.652,1.186,0.848,0.393,0.688,0.655,�k�k��,6.9,��
2020/03/09,01:30,0.675,0.964,0.651,1.186,0.847,0.392,0.686,0.656,�k�k��,6.5,��
2020/03/09,01:40,0.677,0.966,0.652,1.187,0.847,0.392,0.688,0.654,�k�k��,6.7,��
2020/03/09,01:50,0.676,0.964,0.652,1.186,0.848,0.392,0.688,0.657,�k�k��,8.4,��
2020/03/09,02:00,0.675,0.967,0.651,1.188,0.848,0.392,0.689,0.655,�k�k��,8.5,��
2020/03/09,02:10,0.675,0.964,0.653,1.191,0.847,0.393,0.687,0.655,�k�k��,8.2,��
2020/03/09,02:20,0.676,0.966,0.651,1.185,0.849,0.393,0.689,0.655,�k�k��,7.8,��
2020/03/09,02:30,0.674,0.965,0.650,1.188,0.849,0.393,0.688,0.655,�k�k��,6.5,��
2020/03/09,02:40,0.676,0.965,0.652,1.188,0.849,0.392,0.687,0.655,�k�k��,5.6,��
2020/03/09,02:50,0.678,0.965,0.651,1.188,0.850,0.392,0.687,0.655,�k�k��,6.1,��
2020/03/09,03:00,0.676,0.967,0.652,1.188,0.848,0.391,0.690,0.657,�k�k��,5.5,��
2020/03/09,03:10,0.676,0.965,0.652,1.186,0.848,0.392,0.689,0.657,�k�k��,6.7,��
2020/03/09,03:20,0.678,0.965,0.652,1.187,0.850,0.393,0.688,0.657,�k�k��,7.1,��
2020/03/09,03:30,0.677,0.965,0.651,1.190,0.847,0.392,0.689,0.655,�k�k��,6.9,��
2020/03/09,03:40,0.675,0.966,0.651,1.187,0.848,0.391,0.687,0.657,�k�k��,6.6,��
2020/03/09,03:50,0.676,0.966,0.651,1.186,0.849,0.393,0.688,0.658,�k�k��,6.9,��
2020/03/09,04:00,0.677,0.965,0.649,1.189,0.850,0.392,0.687,0.655,�k�k��,7.6,��
2020/03/09,04:10,0.678,0.966,0.652,1.188,0.849,0.392,0.688,0.657,�k�k��,7.9,��
2020/03/09,04:20,0.676,0.966,0.652,1.186,0.849,0.393,0.688,0.658,�k�k��,7.0,��
2020/03/09,04:30,0.677,0.965,0.650,1.188,0.849,0.392,0.688,0.656,�k�k��,6.1,��
2020/03/09,04:40,0.676,0.965,0.653,1.189,0.850,0.393,0.687,0.657,�k�k��,6.4,��
2020/03/09,04:50,0.677,0.965,0.652,1.186,0.850,0.393,0.688,0.657,�k�k��,6.1,��
2020/03/09,05:00,0.677,0.966,0.651,1.188,0.850,0.392,0.687,0.656,�k�k��,5.3,��
2020/03/09,05:10,0.677,0.966,0.653,1.188,0.849,0.393,0.687,0.658,�k�k��,5.4,��
2020/03/09,05:20,0.676,0.965,0.652,1.188,0.849,0.392,0.688,0.657,�k�k��,5.9,��
2020/03/09,05:30,0.677,0.965,0.653,1.187,0.847,0.392,0.689,0.656,�k�k��,6.5,��
2020/03/09,05:40,0.676,0.967,0.652,1.189,0.849,0.392,0.688,0.655,�k�k��,6.4,��
2020/03/09,05:50,0.676,0.965,0.651,1.186,0.849,0.392,0.687,0.655,�k�k��,6.5,�L
2020/03/09,06:00,0.676,0.965,0.653,1.187,0.848,0.392,0.688,0.655,�k�k��,5.8,�L
2020/03/09,06:10,0.676,0.965,0.653,1.188,0.849,0.393,0.688,0.657,�k�k��,6.4,�L
2020/03/09,06:20,0.678,0.965,0.652,1.189,0.850,0.393,0.687,0.656,�k�k��,6.2,�L
2020/03/09,06:30,0.677,0.965,0.652,1.188,0.848,0.393,0.688,0.656,�k�k��,5.6,�L
2020/03/09,06:40,0.679,0.964,0.652,1.189,0.850,0.391,0.687,0.656,�k�k��,5.1,��
2020/03/09,06:50,0.675,0.963,0.651,1.187,0.851,0.393,0.689,0.656,�k�k��,5.7,��
2020/03/09,07:00,0.679,0.965,0.652,1.190,0.850,0.392,0.690,0.656,�k�k��,7.9,��
2020/03/09,07:10,0.678,0.965,0.652,1.187,0.851,0.392,0.687,0.656,�k�k��,7.5,��
2020/03/09,07:20,0.677,0.967,0.652,1.190,0.850,0.394,0.689,0.656,�k�k��,7.2,��
2020/03/09,07:30,0.678,0.967,0.652,1.189,0.850,0.393,0.687,0.656,�k�k��,7.2,��
2020/03/09,07:40,0.679,0.964,0.650,1.187,0.849,0.393,0.689,0.656,�k�k��,5.8,��
2020/03/09,07:50,0.679,0.968,0.651,1.188,0.851,0.393,0.688,0.659,�k�k��,4.9,��
2020/03/09,08:00,0.678,0.967,0.653,1.191,0.851,0.393,0.688,0.659,�k�k��,5.3,��
2020/03/09,08:10,0.678,0.964,0.653,1.189,0.849,0.394,0.687,0.658,�k�k��,4.6,��
2020/03/09,08:20,0.679,0.966,0.653,1.187,0.851,0.393,0.688,0.659,�k,4.2,��
2020/03/09,08:30,0.680,0.966,0.650,1.191,0.848,0.392,0.688,0.657,�k,5.9,��
2020/03/09,08:40,0.679,0.965,0.652,1.189,0.853,0.393,0.688,0.659,�k,5.7,��
2020/03/09,08:50,0.679,0.966,0.651,1.190,0.851,0.393,0.687,0.659,�k�k��,6.1,��
2020/03/09,09:00,0.678,0.964,0.654,1.189,0.850,0.394,0.689,0.657,�k,6.2,��
2020/03/09,09:10,0.678,0.965,0.655,1.191,0.850,0.394,0.686,0.658,�k,6.6,��
2020/03/09,09:20,0.679,0.960,0.653,1.189,0.851,0.393,0.687,0.657,�k,5.7,��
2020/03/09,09:30,0.680,0.960,0.654,1.189,0.850,0.393,0.688,0.655,�k,7.0,��
2020/03/09,09:40,0.681,0.960,0.655,1.191,0.850,0.393,0.687,0.655,�k,7.0,��
2020/03/09,09:50,0.681,0.961,0.653,1.191,0.849,0.393,0.689,0.655,�k,5.9,��
2020/03/09,10:00,0.681,0.963,0.655,1.187,0.849,0.393,0.689,0.654,�k�k��,4.5,��
2020/03/09,10:10,0.682,0.960,0.654,1.190,0.853,0.393,0.689,0.653,�k,4.9,��
2020/03/09,10:20,0.679,0.962,0.655,1.192,0.852,0.392,0.690,0.654,�k,4.4,�L
2020/03/09,10:30,0.680,0.961,0.655,1.191,0.851,0.391,0.689,0.655,�k�k��,4.4,�L
2020/03/09,10:40,0.680,0.959,0.656,1.192,0.852,0.393,0.689,0.654,�k,5.6,�L
2020/03/09,10:50,0.680,0.959,0.653,1.192,0.851,0.393,0.688,0.654,�k�k��,5.9,�L
2020/03/09,11:00,0.681,0.963,0.655,1.192,0.852,0.393,0.688,0.654,�k�k��,5.8,�L
2020/03/09,11:10,0.681,0.963,0.656,1.192,0.851,0.393,0.689,0.655,�k�k��,4.8,�L
2020/03/09,11:20,0.681,0.964,0.654,1.190,0.851,0.394,0.688,0.654,�k�k��,4.7,�L
2020/03/09,11:30,0.682,0.964,0.653,1.191,0.853,0.395,0.689,0.655,�k�k��,3.7,�L
2020/03/09,11:40,0.683,0.965,0.654,1.193,0.854,0.395,0.689,0.656,�k,4.2,��
2020/03/09,11:50,0.684,0.966,0.656,1.193,0.853,0.394,0.690,0.658,�k,3.1,��
2020/03/09,12:00,0.683,0.968,0.654,1.190,0.852,0.395,0.687,0.658,�k,3.6,��
2020/03/09,12:10,0.683,0.967,0.657,1.194,0.854,0.394,0.688,0.658,�k�k��,3.5,��
2020/03/09,12:20,0.681,0.968,0.657,1.193,0.852,0.394,0.689,0.658,�k,4.3,��
2020/03/09,12:30,0.679,0.968,0.657,1.191,0.853,0.394,0.690,0.657,�k,4.0,��
2020/03/09,12:40,0.680,0.965,0.655,1.194,0.854,0.395,0.690,0.656,�k,3.8,��
2020/03/09,12:50,0.682,0.967,0.653,1.195,0.853,0.393,0.689,0.655,�k,3.7,��
2020/03/09,13:00,0.682,0.966,0.656,1.193,0.854,0.393,0.690,0.655,�k,3.8,��
2020/03/09,13:10,0.680,0.965,0.657,1.195,0.854,0.391,0.690,0.657,�k,4.2,��
2020/03/09,13:20,0.680,0.962,0.654,1.196,0.855,0.393,0.690,0.657,�k�k��,3.6,��
2020/03/09,13:30,0.681,0.966,0.655,1.195,0.856,0.394,0.690,0.656,�k�k��,4.4,��
2020/03/09,13:40,0.682,0.966,0.655,1.194,0.853,0.393,0.691,0.656,�k,4.5,��
2020/03/09,13:50,0.682,0.965,0.655,1.195,0.854,0.391,0.691,0.654,�k,3.9,��
2020/03/09,14:00,0.681,0.964,0.656,1.193,0.856,0.391,0.690,0.654,�k,3.7,�L
2020/03/09,14:10,0.681,0.967,0.655,1.194,0.854,0.392,0.691,0.655,�k,4.4,�L
2020/03/09,14:20,0.682,0.966,0.655,1.196,0.857,0.392,0.690,0.656,�k,3.9,��
2020/03/09,14:30,0.683,0.968,0.657,1.196,0.857,0.394,0.691,0.654,�k,4.3,��
2020/03/09,14:40,0.684,0.969,0.656,1.194,0.857,0.394,0.689,0.655,�k�k��,4.5,��
2020/03/09,14:50,0.682,0.971,0.655,1.193,0.857,0.395,0.691,0.655,�k,4.4,��
2020/03/09,15:00,0.685,0.970,0.656,1.194,0.856,0.395,0.692,0.657,�k,4.5,��
2020/03/09,15:10,0.682,0.974,0.657,1.197,0.858,0.395,0.692,0.657,�k�k��,5.7,��
2020/03/09,15:20,0.683,0.971,0.656,1.195,0.859,0.395,0.691,0.655,�k�k��,6.7,��
2020/03/09,15:30,0.681,0.971,0.654,1.193,0.859,0.392,0.689,0.655,�k�k��,6.3,�L
2020/03/09,15:40,0.683,0.973,0.656,1.195,0.857,0.394,0.689,0.656,�k,6.3,�L
2020/03/09,15:50,0.683,0.971,0.653,1.195,0.857,0.395,0.690,0.656,�k�k��,5.5,�L
2020/03/09,16:00,0.684,0.971,0.656,1.195,0.856,0.395,0.692,0.657,�k�k��,5.9,��
2020/03/09,16:10,0.682,0.972,0.655,1.194,0.858,0.395,0.692,0.657,�k,5.4,��
2020/03/09,16:20,0.684,0.975,0.657,1.195,0.856,0.396,0.691,0.655,�k�k��,4.9,�L
2020/03/09,16:30,0.682,0.976,0.657,1.194,0.855,0.395,0.691,0.657,�k�k��,5.4,�L
2020/03/09,16:40,0.684,0.976,0.658,1.195,0.859,0.395,0.690,0.657,�k�k��,5.2,�L
2020/03/09,16:50,0.683,0.974,0.659,1.194,0.858,0.394,0.691,0.658,�k��,5.0,��
2020/03/09,17:00,0.685,0.975,0.656,1.197,0.858,0.395,0.690,0.657,�k�k��,4.5,��
2020/03/09,17:10,0.684,0.975,0.658,1.195,0.859,0.395,0.691,0.658,�k�k��,4.0,�L
2020/03/09,17:20,0.684,0.973,0.658,1.195,0.855,0.396,0.688,0.658,�k,3.6,�L
2020/03/09,17:30,0.683,0.975,0.660,1.196,0.858,0.395,0.691,0.659,�k,3.3,��
2020/03/09,17:40,0.685,0.974,0.659,1.194,0.859,0.395,0.691,0.658,�k,3.8,��
2020/03/09,17:50,0.684,0.976,0.660,1.196,0.860,0.396,0.690,0.658,�k,3.9,��
2020/03/09,18:00,0.683,0.978,0.661,1.195,0.861,0.395,0.692,0.659,�k�k��,4.1,��
2020/03/09,18:10,0.682,0.974,0.660,1.196,0.860,0.394,0.691,0.660,�k,3.5,��
2020/03/09,18:20,0.683,0.976,0.660,1.196,0.858,0.394,0.690,0.659,�k,3.6,��
2020/03/09,18:30,0.682,0.976,0.658,1.196,0.859,0.396,0.692,0.658,-,CALM,��
2020/03/09,18:40,0.683,0.976,0.659,1.196,0.859,0.395,0.692,0.659,�k,3.6,��
2020/03/09,18:50,0.685,0.974,0.659,1.197,0.860,0.395,0.692,0.657,�k,4.1,�L
2020/03/09,19:00,0.683,0.975,0.658,1.197,0.860,0.395,0.692,0.658,�k�k��,3.6,��
2020/03/09,19:10,0.684,0.975,0.659,1.197,0.861,0.395,0.691,0.659,�k,3.1,��
2020/03/09,19:20,0.685,0.975,0.658,1.196,0.860,0.396,0.691,0.658,�k,3.8,��
2020/03/09,19:30,0.684,0.975,0.659,1.196,0.858,0.395,0.690,0.658,�k,2.9,��
2020/03/09,19:40,0.682,0.974,0.658,1.195,0.862,0.394,0.691,0.659,�k,2.8,��
2020/03/09,19:50,0.682,0.976,0.658,1.198,0.860,0.395,0.691,0.660,�k,3.5,��
2020/03/09,20:00,0.683,0.977,0.659,1.197,0.859,0.395,0.693,0.657,�k�k��,3.1,��
2020/03/09,20:10,0.683,0.974,0.659,1.195,0.858,0.395,0.691,0.658,�k,3.3,��
2020/03/09,20:20,0.683,0.976,0.659,1.195,0.859,0.395,0.691,0.658,�k�k��,3.5,��
2020/03/09,20:30,0.685,0.976,0.659,1.198,0.859,0.396,0.691,0.657,�k�k��,2.9,��
2020/03/09,20:40,0.682,0.975,0.658,1.197,0.860,0.395,0.695,0.659,�k�k��,3.1,��
2020/03/09,20:50,0.684,0.974,0.659,1.196,0.858,0.395,0.692,0.658,�k�k��,3.9,��
2020/03/09,21:00,0.683,0.975,0.657,1.196,0.859,0.395,0.692,0.658,�k�k��,3.7,��
2020/03/09,21:10,0.683,0.974,0.658,1.198,0.860,0.395,0.692,0.659,�k,3.5,��
2020/03/09,21:20,0.683,0.976,0.658,1.195,0.861,0.395,0.693,0.659,�k,3.5,�L
2020/03/09,21:30,0.683,0.975,0.660,1.196,0.858,0.395,0.693,0.659,�k�k��,3.0,�L
2020/03/09,21:40,0.683,0.976,0.659,1.196,0.859,0.395,0.690,0.658,�k�k��,3.3,�L
2020/03/09,21:50,0.684,0.976,0.658,1.196,0.859,0.396,0.690,0.658,�k�k��,3.6,�L
2020/03/09,22:00,0.682,0.975,0.659,1.197,0.857,0.396,0.690,0.656,�k�k��,3.0,�L
2020/03/09,22:10,0.683,0.974,0.658,1.195,0.861,0.396,0.690,0.657,�k�k��,3.8,�L
2020/03/09,22:20,0.681,0.971,0.656,1.196,0.860,0.395,0.690,0.658,�k�k��,3.7,�L
2020/03/09,22:30,0.681,0.975,0.659,1.195,0.857,0.395,0.690,0.658,�k��,2.6,�L
2020/03/09,22:40,0.684,0.974,0.657,1.193,0.854,0.395,0.690,0.657,�k��,3.0,��
2020/03/09,22:50,0.682,0.973,0.658,1.193,0.855,0.394,0.689,0.657,�k��,2.6,�L
2020/03/09,23:00,0.683,0.971,0.658,1.195,0.854,0.394,0.691,0.659,�k��,2.6,�L
2020/03/09,23:10,0.680,0.972,0.655,1.193,0.854,0.395,0.691,0.657,�k��,2.9,��
2020/03/09,23:20,0.680,0.972,0.658,1.196,0.854,0.396,0.689,0.656,�k��,3.1,�L
2020/03/09,23:30,0.681,0.969,0.657,1.194,0.851,0.394,0.689,0.657,�k��,3.2,�L
2020/03/09,23:40,0.679,0.966,0.656,1.193,0.850,0.395,0.687,0.657,�k��,2.5,�L
2020/03/09,23:50,0.682,0.969,0.656,1.192,0.851,0.395,0.688,0.656,�k�k��,1.9,�L
